JBU381 KBOS-KRIC

Flight info

Callsign JBU381
Flight time 1h 16m
Altitude 36000
Route SSOXS7 SSOXS Q167 ZJAAY ARICE JAMIE
Aircraft A320/M-SDE3FGHIRWY/LB1

Departure

Time 2026-05-05 14:26
Airport Boston Logan International Airport (KBOS)

Arrival

Time 2026-05-05 15:43
Airport Richmond International Airport (KRIC)
Time Latitude Longitude Altitude Speed Heading
2026-05-05 13:57 42.36568 -71.01667 34 ft 0 kts 334°
2026-05-05 14:10 42.36558 -71.01661 33 ft 3 kts 334°
2026-05-05 14:10 42.36536 -71.01647 33 ft 3 kts 339°
2026-05-05 14:11 42.36513 -71.01640 33 ft 3 kts 353°
2026-05-05 14:11 42.36489 -71.01640 33 ft 3 kts
2026-05-05 14:11 42.36473 -71.01643 33 ft 2 kts 98°
2026-05-05 14:11 42.36481 -71.01664 33 ft 0 kts 122°
2026-05-05 14:14 42.36481 -71.01663 33 ft 0 kts 122°
2026-05-05 14:16 42.36481 -71.01662 33 ft 1 kts 122°
2026-05-05 14:16 42.36474 -71.01647 33 ft 3 kts 121°
2026-05-05 14:16 42.36457 -71.01611 33 ft 7 kts 121°
2026-05-05 14:16 42.36436 -71.01564 33 ft 2 kts 121°
2026-05-05 14:17 42.36419 -71.01526 33 ft 9 kts 121°
2026-05-05 14:17 42.36388 -71.01456 33 ft 1 kts 115°
2026-05-05 14:17 42.36386 -71.01447 33 ft 2 kts 111°
2026-05-05 14:17 42.36385 -71.01429 33 ft 0 kts 87°
2026-05-05 14:18 42.36385 -71.01426 33 ft 1 kts 79°
2026-05-05 14:18 42.36386 -71.01423 33 ft 0 kts 78°
2026-05-05 14:18 42.36386 -71.01421 33 ft 1 kts 74°
2026-05-05 14:19 42.36390 -71.01411 33 ft 1 kts 58°
2026-05-05 14:19 42.36391 -71.01410 33 ft 0 kts 58°
2026-05-05 14:20 42.36392 -71.01407 33 ft 1 kts 58°
2026-05-05 14:20 42.36402 -71.01388 33 ft 4 kts 54°
2026-05-05 14:20 42.36423 -71.01379 33 ft 4 kts
2026-05-05 14:20 42.36460 -71.01369 33 ft 7 kts 17°
2026-05-05 14:21 42.36510 -71.01340 33 ft 11 kts 28°
2026-05-05 14:21 42.36607 -71.01285 33 ft 18 kts 17°
2026-05-05 14:21 42.36734 -71.01243 33 ft 19 kts 354°
2026-05-05 14:21 42.36845 -71.01275 33 ft 15 kts 38°
2026-05-05 14:22 42.36917 -71.01189 33 ft 15 kts 40°
2026-05-05 14:22 42.37005 -71.01101 33 ft 17 kts 28°
2026-05-05 14:22 42.37117 -71.01026 33 ft 19 kts 26°
2026-05-05 14:22 42.37244 -71.00944 33 ft 21 kts 25°
2026-05-05 14:23 42.37389 -71.00864 33 ft 24 kts 19°
2026-05-05 14:23 42.37552 -71.00787 33 ft 26 kts 20°
2026-05-05 14:23 42.37713 -71.00709 33 ft 24 kts 19°
2026-05-05 14:23 42.37778 -71.00661 33 ft 5 kts 79°
2026-05-05 14:24 42.37764 -71.00587 33 ft 12 kts 111°
2026-05-05 14:24 42.37701 -71.00518 33 ft 15 kts 188°
2026-05-05 14:24 42.37645 -71.00552 33 ft 8 kts 191°
2026-05-05 14:24 42.37582 -71.00576 33 ft 0 kts 200°
2026-05-05 14:25 42.37566 -71.00584 33 ft 15 kts 200°
2026-05-05 14:25 42.37560 -71.00587 33 ft 0 kts 200°
2026-05-05 14:25 42.37557 -71.00589 33 ft 2 kts 200°
2026-05-05 14:26 42.37408 -71.00662 33 ft 60 kts 199°
2026-05-05 14:26 42.36766 -71.00972 34 ft 134 kts 199°
2026-05-05 14:26 42.35723 -71.01491 227 ft 173 kts 201°
2026-05-05 14:26 42.34569 -71.02021 1048 ft 173 kts 197°
2026-05-05 14:27 42.33470 -71.02381 1886 ft 160 kts 186°
2026-05-05 14:27 42.32403 -71.01871 2419 ft 175 kts 144°
2026-05-05 14:27 42.31760 -71.00403 2951 ft 192 kts 118°
2026-05-05 14:27 42.31290 -70.98603 3605 ft 211 kts 117°
2026-05-05 14:28 42.30755 -70.96730 4513 ft 215 kts 120°
2026-05-05 14:28 42.30231 -70.94807 4981 ft 222 kts 113°
2026-05-05 14:28 42.29994 -70.92739 4955 ft 236 kts 86°
2026-05-05 14:28 42.30572 -70.90533 5492 ft 255 kts 63°
2026-05-05 14:29 42.31408 -70.88497 6779 ft 241 kts 62°
2026-05-05 14:29 42.32048 -70.86425 7790 ft 240 kts 78°
2026-05-05 14:29 42.32420 -70.84222 8672 ft 237 kts 80°
2026-05-05 14:29 42.32828 -70.82086 9190 ft 245 kts 75°
2026-05-05 14:30 42.33399 -70.79786 9671 ft 265 kts 72°
2026-05-05 14:30 42.33757 -70.77367 10512 ft 264 kts 97°
2026-05-05 14:30 42.33247 -70.75053 11336 ft 254 kts 130°
2026-05-05 14:30 42.32161 -70.73241 12274 ft 244 kts 139°
2026-05-05 14:31 42.31035 -70.71586 13189 ft 241 kts 139°
2026-05-05 14:31 42.29933 -70.69836 13974 ft 245 kts 135°
2026-05-05 14:31 42.28838 -70.68019 14123 ft 249 kts 137°
2026-05-05 14:31 42.27612 -70.66247 14212 ft 266 kts 148°
2026-05-05 14:32 42.25960 -70.65191 14445 ft 265 kts 178°
2026-05-05 14:32 42.24098 -70.65001 14825 ft 272 kts 183°
2026-05-05 14:32 42.22162 -70.64794 15191 ft 287 kts 178°
2026-05-05 14:32 42.20144 -70.64235 15490 ft 304 kts 171°
2026-05-05 14:33 42.18100 -70.63374 15988 ft 311 kts 167°
2026-05-05 14:33 42.16046 -70.62383 16555 ft 314 kts 166°
2026-05-05 14:33 42.13965 -70.61469 17067 ft 313 kts 175°
2026-05-05 14:33 42.11808 -70.61543 17262 ft 314 kts 200°
2026-05-05 14:34 42.09745 -70.62613 17449 ft 324 kts 208°
2026-05-05 14:34 42.07642 -70.63899 17610 ft 339 kts 207°
2026-05-05 14:34 42.05418 -70.65132 17788 ft 352 kts 204°
2026-05-05 14:34 42.03109 -70.66212 18204 ft 358 kts 201°
2026-05-05 14:35 42.00691 -70.67229 18678 ft 361 kts 201°
2026-05-05 14:35 41.98276 -70.68227 19120 ft 365 kts 200°
2026-05-05 14:35 41.95844 -70.69261 19540 ft 369 kts 201°
2026-05-05 14:35 41.93429 -70.70319 19966 ft 372 kts 201°
2026-05-05 14:36 41.90959 -70.71417 20389 ft 375 kts 201°
2026-05-05 14:36 41.88486 -70.72513 20808 ft 378 kts 201°
2026-05-05 14:36 41.85930 -70.73637 21220 ft 381 kts 201°
2026-05-05 14:36 41.83464 -70.74828 21600 ft 382 kts 207°
2026-05-05 14:37 41.81093 -70.76447 21983 ft 384 kts 211°
2026-05-05 14:37 41.78754 -70.78213 22367 ft 386 kts 212°
2026-05-05 14:37 41.76427 -70.80032 22736 ft 389 kts 212°
2026-05-05 14:37 41.74071 -70.81862 23108 ft 392 kts 212°
2026-05-05 14:38 41.71688 -70.83670 23454 ft 395 kts 211°
2026-05-05 14:38 41.69275 -70.85464 23804 ft 398 kts 211°
2026-05-05 14:38 41.66844 -70.87262 24135 ft 400 kts 211°
2026-05-05 14:38 41.64403 -70.89075 24478 ft 403 kts 211°
2026-05-05 14:39 41.61952 -70.90909 24802 ft 405 kts 211°
2026-05-05 14:39 41.59487 -70.92757 25128 ft 407 kts 211°
2026-05-05 14:39 41.57017 -70.94623 25445 ft 409 kts 213°
2026-05-05 14:39 41.54711 -70.96854 25741 ft 409 kts 223°
2026-05-05 14:40 41.52821 -70.99678 26046 ft 409 kts 235°
2026-05-05 14:40 41.51227 -71.02826 26343 ft 411 kts 238°
2026-05-05 14:40 41.49699 -71.06068 26632 ft 413 kts 238°
2026-05-05 14:40 41.48169 -71.09319 26927 ft 415 kts 238°
2026-05-05 14:41 41.46586 -71.12560 27207 ft 417 kts 237°
2026-05-05 14:41 41.44960 -71.15772 27478 ft 420 kts 236°
2026-05-05 14:41 41.43304 -71.18991 27739 ft 422 kts 236°
2026-05-05 14:41 41.41650 -71.22228 28015 ft 424 kts 236°
2026-05-05 14:42 41.40000 -71.25499 28278 ft 426 kts 237°
2026-05-05 14:42 41.38356 -71.28784 28534 ft 428 kts 237°
2026-05-05 14:42 41.36700 -71.32089 28808 ft 430 kts 237°
2026-05-05 14:42 41.35029 -71.35404 29061 ft 432 kts 236°
2026-05-05 14:43 41.33349 -71.38722 29306 ft 434 kts 236°
2026-05-05 14:43 41.31660 -71.42058 29558 ft 435 kts 236°
2026-05-05 14:43 41.29988 -71.45362 29797 ft 437 kts 236°
2026-05-05 14:43 41.28282 -71.48736 30029 ft 439 kts 236°
2026-05-05 14:44 41.26578 -71.52098 30327 ft 439 kts 236°
2026-05-05 14:44 41.24869 -71.55462 30659 ft 438 kts 236°
2026-05-05 14:44 41.23161 -71.58819 30973 ft 438 kts 236°
2026-05-05 14:44 41.21459 -71.62165 31288 ft 437 kts 236°
2026-05-05 14:45 41.19758 -71.65507 31599 ft 436 kts 236°
2026-05-05 14:45 41.18059 -71.68840 31903 ft 435 kts 236°
2026-05-05 14:45 41.16362 -71.72166 32202 ft 435 kts 236°
2026-05-05 14:45 41.14666 -71.75482 32496 ft 434 kts 236°
2026-05-05 14:46 41.12975 -71.78790 32781 ft 433 kts 237°
2026-05-05 14:46 41.11288 -71.82109 33063 ft 433 kts 237°
2026-05-05 14:46 41.09611 -71.85419 33338 ft 432 kts 237°
2026-05-05 14:46 41.07934 -71.88722 33606 ft 432 kts 237°
2026-05-05 14:47 41.06252 -71.92023 33868 ft 431 kts 237°
2026-05-05 14:47 41.04570 -71.95316 34125 ft 431 kts 237°
2026-05-05 14:47 41.03024 -71.98700 34382 ft 429 kts 244°
2026-05-05 14:47 41.01715 -72.02252 34654 ft 428 kts 245°
2026-05-05 14:48 41.00473 -72.05816 34956 ft 426 kts 246°
2026-05-05 14:48 40.99256 -72.09381 35219 ft 425 kts 246°
2026-05-05 14:48 40.98030 -72.12941 35440 ft 424 kts 246°
2026-05-05 14:48 40.96789 -72.16468 35688 ft 423 kts 245°
2026-05-05 14:49 40.95531 -72.19989 35907 ft 422 kts 245°
2026-05-05 14:49 40.94272 -72.23502 35990 ft 422 kts 245°
2026-05-05 14:49 40.91638 -72.30505 35988 ft 430 kts 239°
2026-05-05 14:50 40.87698 -72.36486 35997 ft 439 kts 226°
2026-05-05 14:50 40.83229 -72.42065 35997 ft 444 kts 225°
2026-05-05 14:51 40.78717 -72.47611 35987 ft 443 kts 222°
2026-05-05 14:51 40.74002 -72.52830 35949 ft 443 kts 221°
2026-05-05 14:52 40.69194 -72.57985 35945 ft 443 kts 221°
2026-05-05 14:52 40.64512 -72.63318 35962 ft 446 kts 223°
2026-05-05 14:53 40.59879 -72.68696 36021 ft 448 kts 223°
2026-05-05 14:53 40.55193 -72.74068 36030 ft 446 kts 223°
2026-05-05 14:54 40.50540 -72.79379 36027 ft 443 kts 223°
2026-05-05 14:54 40.45894 -72.84698 36020 ft 441 kts 223°
2026-05-05 14:55 40.41260 -72.89988 35981 ft 441 kts 223°
2026-05-05 14:55 40.36626 -72.95259 35936 ft 441 kts 223°
2026-05-05 14:56 40.31994 -73.00524 35926 ft 441 kts 223°
2026-05-05 14:56 40.27332 -73.05813 35935 ft 445 kts 222°
2026-05-05 14:57 40.22642 -73.11121 35992 ft 447 kts 222°
2026-05-05 14:57 40.17943 -73.16430 36010 ft 445 kts 222°
2026-05-05 14:58 40.13272 -73.21698 36007 ft 442 kts 222°
2026-05-05 14:58 40.09406 -73.26049 35994 ft 441 kts 222°
2026-05-05 14:59 40.03978 -73.32146 35945 ft 440 kts 222°
2026-05-05 14:59 40.00111 -73.36469 35920 ft 440 kts 222°
2026-05-05 15:00 39.95458 -73.41668 35927 ft 441 kts 222°
2026-05-05 15:00 39.90012 -73.47747 35947 ft 445 kts 222°
2026-05-05 15:01 39.86061 -73.52145 35994 ft 447 kts 222°
2026-05-05 15:01 39.81335 -73.57399 36019 ft 446 kts 222°
2026-05-05 15:02 39.76633 -73.62639 36020 ft 443 kts 222°
2026-05-05 15:02 39.71974 -73.67816 36010 ft 441 kts 222°
2026-05-05 15:03 39.67307 -73.72985 35969 ft 440 kts 222°
2026-05-05 15:03 39.62646 -73.78143 35929 ft 441 kts 222°
2026-05-05 15:04 39.57974 -73.83303 35933 ft 441 kts 221°
2026-05-05 15:04 39.53281 -73.88478 35940 ft 445 kts 221°
2026-05-05 15:05 39.46181 -73.96288 36026 ft 448 kts 221°
2026-05-05 15:06 39.41449 -74.01480 36031 ft 444 kts 221°
2026-05-05 15:06 39.36748 -74.06622 36037 ft 441 kts 222°
2026-05-05 15:07 39.32064 -74.11731 36023 ft 440 kts 222°
2026-05-05 15:07 39.27392 -74.16829 35982 ft 440 kts 222°
2026-05-05 15:08 39.22715 -74.21920 35948 ft 440 kts 221°
2026-05-05 15:08 39.18030 -74.27004 35946 ft 440 kts 221°
2026-05-05 15:09 39.13322 -74.32112 35955 ft 445 kts 221°
2026-05-05 15:09 39.08571 -74.37255 36011 ft 447 kts 221°
2026-05-05 15:10 39.03814 -74.42389 36038 ft 445 kts 221°
2026-05-05 15:10 38.99080 -74.47492 36049 ft 442 kts 222°
2026-05-05 15:11 38.94388 -74.52552 36038 ft 440 kts 223°
2026-05-05 15:11 38.89852 -74.57808 35999 ft 438 kts 224°
2026-05-05 15:12 38.85381 -74.63077 35958 ft 439 kts 224°
2026-05-05 15:12 38.80852 -74.68370 35963 ft 438 kts 224°
2026-05-05 15:13 38.76333 -74.73630 35965 ft 439 kts 224°
2026-05-05 15:13 38.71641 -74.78722 35979 ft 445 kts 221°
2026-05-05 15:14 38.66784 -74.83753 36026 ft 447 kts 221°
2026-05-05 15:14 38.61967 -74.88747 36063 ft 444 kts 221°
2026-05-05 15:15 38.57191 -74.93721 36065 ft 442 kts 221°
2026-05-05 15:15 38.52448 -74.98681 36043 ft 439 kts 223°
2026-05-05 15:16 38.47848 -75.03800 36006 ft 438 kts 223°
2026-05-05 15:16 38.43055 -75.08614 36027 ft 443 kts 219°
2026-05-05 15:17 38.38097 -75.13280 36039 ft 443 kts 219°
2026-05-05 15:17 38.33138 -75.17958 36045 ft 443 kts 219°
2026-05-05 15:18 38.28246 -75.22616 36039 ft 431 kts 219°
2026-05-05 15:18 38.23524 -75.27078 36021 ft 416 kts 219°
2026-05-05 15:19 38.18841 -75.31505 36047 ft 424 kts 219°
2026-05-05 15:19 38.14079 -75.35998 36048 ft 426 kts 219°
2026-05-05 15:20 38.09312 -75.40483 36053 ft 427 kts 219°
2026-05-05 15:20 38.04518 -75.44910 36057 ft 427 kts 217°
2026-05-05 15:21 37.99542 -75.49048 36072 ft 428 kts 216°
2026-05-05 15:21 37.94541 -75.53133 36084 ft 427 kts 216°
2026-05-05 15:22 37.89595 -75.57218 35936 ft 425 kts 216°
2026-05-05 15:22 37.87099 -75.59278 35403 ft 424 kts 216°
2026-05-05 15:22 37.84616 -75.61324 34529 ft 429 kts 216°
2026-05-05 15:22 37.82078 -75.63413 33422 ft 440 kts 216°
2026-05-05 15:23 37.79500 -75.65528 32565 ft 443 kts 215°
2026-05-05 15:23 37.76913 -75.67644 31802 ft 443 kts 215°
2026-05-05 15:23 37.74325 -75.69763 31051 ft 443 kts 215°
2026-05-05 15:23 37.71755 -75.71879 30432 ft 439 kts 216°
2026-05-05 15:24 37.69433 -75.74318 29848 ft 431 kts 227°
2026-05-05 15:24 37.67623 -75.77297 29229 ft 425 kts 240°
2026-05-05 15:24 37.66317 -75.80618 28617 ft 420 kts 246°
2026-05-05 15:24 37.65150 -75.83976 27991 ft 416 kts 247°
2026-05-05 15:25 37.63991 -75.87309 27374 ft 413 kts 246°
2026-05-05 15:25 37.62810 -75.90551 26763 ft 409 kts 246°
2026-05-05 15:25 37.61588 -75.93811 26126 ft 405 kts 248°
2026-05-05 15:25 37.60776 -75.97177 25349 ft 399 kts 262°
2026-05-05 15:26 37.60680 -76.00641 24552 ft 394 kts 274°
2026-05-05 15:26 37.60939 -76.04059 23792 ft 389 kts 276°
2026-05-05 15:26 37.61263 -76.07421 23032 ft 384 kts 276°
2026-05-05 15:26 37.61565 -76.10751 22278 ft 379 kts 275°
2026-05-05 15:27 37.61803 -76.13983 21553 ft 374 kts 274°
2026-05-05 15:27 37.62003 -76.17250 20816 ft 369 kts 273°
2026-05-05 15:27 37.62191 -76.20500 20062 ft 365 kts 273°
2026-05-05 15:27 37.62382 -76.23671 19325 ft 360 kts 274°
2026-05-05 15:28 37.62582 -76.26798 18599 ft 355 kts 274°
2026-05-05 15:28 37.62786 -76.29879 17875 ft 350 kts 274°
2026-05-05 15:28 37.62987 -76.32925 17133 ft 346 kts 273°
2026-05-05 15:28 37.63183 -76.35937 16375 ft 343 kts 273°
2026-05-05 15:29 37.63375 -76.38923 15596 ft 341 kts 273°
2026-05-05 15:29 37.63564 -76.41897 14827 ft 338 kts 273°
2026-05-05 15:29 37.63751 -76.44840 14069 ft 335 kts 272°
2026-05-05 15:29 37.63936 -76.47761 13318 ft 333 kts 272°
2026-05-05 15:30 37.64119 -76.50660 12566 ft 330 kts 272°
2026-05-05 15:30 37.64300 -76.53537 11815 ft 328 kts 272°
2026-05-05 15:30 37.64479 -76.56390 11150 ft 324 kts 272°
2026-05-05 15:30 37.64653 -76.59187 10654 ft 315 kts 272°
2026-05-05 15:31 37.64820 -76.61875 10257 ft 306 kts 272°
2026-05-05 15:31 37.64980 -76.64456 10023 ft 293 kts 271°
2026-05-05 15:31 37.65143 -76.67047 9857 ft 283 kts 271°
2026-05-05 15:31 37.65293 -76.69494 9632 ft 277 kts 271°
2026-05-05 15:32 37.65440 -76.71898 9326 ft 273 kts 271°
2026-05-05 15:32 37.65582 -76.74281 8992 ft 271 kts 271°
2026-05-05 15:32 37.65723 -76.76641 8670 ft 268 kts 271°
2026-05-05 15:32 37.65864 -76.78974 8344 ft 266 kts 271°
2026-05-05 15:33 37.66006 -76.81297 8020 ft 265 kts 271°
2026-05-05 15:33 37.66144 -76.83586 7714 ft 265 kts 271°
2026-05-05 15:33 37.66282 -76.85894 7408 ft 264 kts 271°
2026-05-05 15:33 37.66421 -76.88205 7086 ft 263 kts 271°
2026-05-05 15:34 37.66558 -76.90501 6737 ft 262 kts 271°
2026-05-05 15:34 37.66693 -76.92789 6385 ft 261 kts 271°
2026-05-05 15:34 37.66827 -76.95056 6063 ft 258 kts 271°
2026-05-05 15:34 37.66961 -76.97307 5720 ft 256 kts 272°
2026-05-05 15:35 37.67093 -76.99543 5382 ft 255 kts 271°
2026-05-05 15:35 37.67222 -77.01759 5082 ft 251 kts 271°
2026-05-05 15:35 37.67351 -77.03963 4733 ft 253 kts 271°
2026-05-05 15:35 37.67480 -77.06168 4397 ft 252 kts 271°
2026-05-05 15:36 37.67607 -77.08365 4066 ft 250 kts 271°
2026-05-05 15:36 37.67732 -77.10544 3740 ft 248 kts 271°
2026-05-05 15:36 37.67858 -77.12706 3428 ft 246 kts 271°
2026-05-05 15:36 37.67982 -77.14851 3097 ft 244 kts 271°
2026-05-05 15:37 37.68105 -77.16979 2771 ft 243 kts 271°
2026-05-05 15:37 37.68225 -77.19102 2476 ft 243 kts 271°
2026-05-05 15:37 37.68346 -77.21230 2161 ft 244 kts 271°
2026-05-05 15:37 37.68468 -77.23341 1993 ft 237 kts 271°
2026-05-05 15:38 37.68420 -77.25338 1980 ft 219 kts 257°
2026-05-05 15:38 37.67904 -77.27054 1973 ft 203 kts 232°
2026-05-05 15:38 37.66815 -77.28033 1960 ft 188 kts 198°
2026-05-05 15:38 37.65559 -77.28361 1999 ft 182 kts 191°
2026-05-05 15:39 37.64385 -77.28607 1998 ft 159 kts 193°
2026-05-05 15:39 37.63369 -77.28892 2007 ft 143 kts 196°
2026-05-05 15:39 37.62748 -77.29083 2045 ft 136 kts 196°
2026-05-05 15:39 37.61541 -77.29455 2026 ft 133 kts 196°
2026-05-05 15:40 37.60638 -77.29726 2027 ft 134 kts 196°
2026-05-05 15:40 37.60038 -77.29909 1945 ft 133 kts 196°
2026-05-05 15:40 37.59139 -77.30180 1755 ft 132 kts 196°
2026-05-05 15:40 37.58247 -77.30449 1573 ft 133 kts 195°
2026-05-05 15:41 37.57355 -77.30718 1388 ft 131 kts 194°
2026-05-05 15:41 37.56466 -77.30988 1206 ft 132 kts 194°
2026-05-05 15:41 37.55581 -77.31256 1036 ft 131 kts 195°
2026-05-05 15:41 37.54695 -77.31520 851 ft 130 kts 195°
2026-05-05 15:42 37.53811 -77.31785 657 ft 130 kts 194°
2026-05-05 15:42 37.52931 -77.32047 471 ft 129 kts 194°
2026-05-05 15:42 37.52058 -77.32315 289 ft 129 kts 195°
2026-05-05 15:42 37.51183 -77.32574 182 ft 125 kts 200°
2026-05-05 15:43 37.50594 -77.32754 181 ft 44 kts 195°
2026-05-05 15:43 37.50362 -77.32824 181 ft 33 kts 194°
2026-05-05 15:43 37.50155 -77.32887 181 ft 24 kts 192°
2026-05-05 15:43 37.50003 -77.32941 181 ft 17 kts 226°
2026-05-05 15:44 37.49998 -77.32998 181 ft 6 kts 288°
2026-05-05 15:44 37.50020 -77.33056 181 ft 8 kts 327°
2026-05-05 15:44 37.50082 -77.33051 181 ft 10 kts 13°
2026-05-05 15:44 37.50161 -77.33028 181 ft 13 kts 13°
2026-05-05 15:45 37.50260 -77.32997 181 ft 18 kts 13°
2026-05-05 15:45 37.50411 -77.32952 181 ft 23 kts 13°
2026-05-05 15:45 37.50595 -77.32896 181 ft 31 kts 13°
2026-05-05 15:45 37.50830 -77.32826 181 ft 37 kts 13°
2026-05-05 15:46 37.51036 -77.32766 181 ft 28 kts 13°
2026-05-05 15:46 37.51208 -77.32716 181 ft 13 kts 348°
2026-05-05 15:46 37.51205 -77.32789 181 ft 9 kts 207°
2026-05-05 15:46 37.51140 -77.32818 181 ft 11 kts 193°
2026-05-05 15:47 37.51058 -77.32842 181 ft 13 kts 193°
2026-05-05 15:47 37.50960 -77.32871 181 ft 15 kts 193°
2026-05-05 15:47 37.50850 -77.32912 181 ft 17 kts 198°
2026-05-05 15:47 37.50770 -77.32944 181 ft 11 kts 224°
2026-05-05 15:48 37.50745 -77.33036 181 ft 12 kts 254°
2026-05-05 15:48 37.50725 -77.33107 181 ft 0 kts 251°